Weather in Karabulak

Russia / Republic of Ingushetia     43°18′20″N   44°54′33″E
temp.,
°C
wind,
m/s
gust,
m/s
humid.,
%
clouds,
%
prec.,
mm/h
press.,
hPa
HPBL,
m
26 july, mon
mon2600:00+18sse117854 0.0 101717
03:00+18ssw118118 0.0 101711
06:00+19sse008033 0.0 101756
09:00+24ene455817 0.0 1016881
12:00+27e45495 0.1 10151357
15:00+29se344519 0.6 10141702
18:00+26sw2365100 0.2 1014103
21:00+22ese2266100 0.3 101619
27 july, tue
tue2700:00+19e258886 1.1 1015126
03:00+18sse009596 1.4 101512
06:00+19w119625 0.8 101565
09:00+22ene238186 1.6 1015822
12:00+22ese2385100 1.2 1015453
15:00+20wsw2392100 2.6 101499
18:00+19w3393100 0.3 101684
21:00+18w2392100 1.4 101782
28 july, wed
wed2800:00+17wsw2496100 1.9 1017150
03:00+17w1194100 2.6 101737
06:00+16nnw2288100 0.5 101833
09:00+16n3590100 0.6 1019446
12:00+15ssw1188100 0.3 1019185
15:00+16ssw1182100 0.3 1019188
18:00+17ssw1179100 0.0 1019216
21:00+15sw3391100 0.0 101946
29 july, thu
thu2900:00+15wsw228653 0.0 101838
03:00+13sw22874 0.0 101713
06:00+15ssw11794 0.0 101736
09:00+22e35533 0.0 1017834
12:00+25e45430 0.0 10151546
15:00+27e45350 0.0 10141840
18:00+25e23470 0.0 101358
21:00+18s22570 0.0 101517
30 july, fri
fri3000:00+17sw22630 0.0 101416
03:00+16sw32720 0.0 101328
06:00+17sw22720 0.0 101451
09:00+25ne11480 0.0 1013683
12:00+28ene33390 0.0 10111344
15:00+29e23350 0.0 10101630
18:00+27ssw22492 0.0 101039
21:00+20ese12572 0.0 101217